TimeCDT,TemperatureF,Dew PointF,Humidity,Sea Level PressureIn,VisibilityMPH,Wind Direction,Wind SpeedMPH,Gust SpeedMPH,PrecipitationIn,Events,Conditions,WindDirDegrees,DateUTC
12:15 AM,73.4,66.2,78,29.90,10.0,South,10.4,-,N/A,,Clear,170,2012-09-03 05:15:00
12:35 AM,73.4,66.2,78,29.90,10.0,South,11.5,-,N/A,,Clear,170,2012-09-03 05:35:00
12:55 AM,73.4,66.2,78,29.90,10.0,South,10.4,-,N/A,,Clear,170,2012-09-03 05:55:00
1:15 AM,73.4,66.2,78,29.91,10.0,South,8.1,-,N/A,,Clear,190,2012-09-03 06:15:00
1:35 AM,71.6,66.2,83,29.90,10.0,South,6.9,-,N/A,,Clear,190,2012-09-03 06:35:00
1:55 AM,71.6,66.2,83,29.90,10.0,South,9.2,-,N/A,,Clear,190,2012-09-03 06:55:00
2:15 AM,71.6,66.2,83,29.90,10.0,South,8.1,-,N/A,,Clear,190,2012-09-03 07:15:00
2:35 AM,71.6,66.2,83,29.89,10.0,South,8.1,-,N/A,,Clear,180,2012-09-03 07:35:00
2:55 AM,71.6,66.2,83,29.90,10.0,South,8.1,-,N/A,,Partly Cloudy,190,2012-09-03 07:55:00
3:15 AM,71.6,66.2,83,29.90,10.0,South,6.9,-,N/A,,Scattered Clouds,180,2012-09-03 08:15:00
3:35 AM,71.6,66.2,83,29.92,10.0,SSW,5.8,-,N/A,,Scattered Clouds,210,2012-09-03 08:35:00
3:55 AM,69.8,66.2,88,29.92,10.0,SSW,5.8,-,N/A,,Mostly Cloudy,200,2012-09-03 08:55:00
4:15 AM,69.8,66.2,88,29.92,10.0,South,8.1,-,N/A,,Overcast,180,2012-09-03 09:15:00
4:35 AM,69.8,66.2,88,29.92,10.0,South,6.9,-,N/A,,Mostly Cloudy,180,2012-09-03 09:35:00
4:55 AM,69.8,66.2,88,29.91,10.0,South,6.9,-,N/A,,Mostly Cloudy,180,2012-09-03 09:55:00
5:15 AM,69.8,66.2,88,29.92,10.0,SSW,5.8,-,N/A,,Scattered Clouds,200,2012-09-03 10:15:00
5:35 AM,69.8,66.2,88,29.92,10.0,South,5.8,-,N/A,,Scattered Clouds,190,2012-09-03 10:35:00
5:55 AM,69.8,66.2,88,29.92,10.0,South,5.8,-,N/A,,Scattered Clouds,190,2012-09-03 10:55:00
6:15 AM,69.8,66.2,88,29.93,10.0,South,6.9,-,N/A,,Partly Cloudy,180,2012-09-03 11:15:00
6:35 AM,68.0,66.2,94,29.92,10.0,South,5.8,-,N/A,,Partly Cloudy,180,2012-09-03 11:35:00
6:55 AM,68.0,66.2,94,29.93,9.0,South,4.6,-,N/A,,Partly Cloudy,170,2012-09-03 11:55:00
7:15 AM,68.0,66.2,94,29.93,8.0,SSE,3.5,-,N/A,,Clear,160,2012-09-03 12:15:00
7:35 AM,69.8,66.2,88,29.93,9.0,SSE,4.6,-,N/A,,Partly Cloudy,150,2012-09-03 12:35:00
7:55 AM,69.8,68.0,94,29.93,9.0,SSE,3.5,-,N/A,,Scattered Clouds,160,2012-09-03 12:55:00
8:15 AM,71.6,68.0,88,29.94,9.0,South,5.8,-,N/A,,Partly Cloudy,190,2012-09-03 13:15:00
8:35 AM,73.4,68.0,83,29.94,10.0,North,-9999.0,-,N/A,,Clear,0,2012-09-03 13:35:00
8:55 AM,75.2,68.0,78,29.93,10.0,South,5.8,-,N/A,,Partly Cloudy,170,2012-09-03 13:55:00
9:15 AM,77.0,69.8,78,29.94,10.0,SW,5.8,-,N/A,,Partly Cloudy,220,2012-09-03 14:15:00
9:35 AM,77.0,68.0,74,29.93,10.0,SW,8.1,-,N/A,,Partly Cloudy,230,2012-09-03 14:35:00
9:55 AM,77.0,69.8,78,29.94,10.0,WSW,6.9,-,N/A,,Clear,240,2012-09-03 14:55:00
10:15 AM,78.8,69.8,74,29.94,10.0,SW,8.1,-,N/A,,Clear,230,2012-09-03 15:15:00
10:35 AM,78.8,69.8,74,29.94,10.0,SW,8.1,-,N/A,,Clear,230,2012-09-03 15:35:00
10:55 AM,78.8,69.8,74,29.95,10.0,SW,8.1,-,N/A,,Clear,230,2012-09-03 15:55:00
11:15 AM,80.6,69.8,70,29.95,10.0,SW,10.4,16.1,N/A,,Clear,220,2012-09-03 16:15:00
11:35 AM,78.8,69.8,74,29.95,10.0,SW,10.4,16.1,N/A,,Clear,220,2012-09-03 16:35:00
11:55 AM,80.6,69.8,70,29.94,10.0,SW,8.1,13.8,N/A,,Clear,220,2012-09-03 16:55:00
12:15 PM,80.6,69.8,70,29.93,10.0,SW,8.1,16.1,N/A,,Clear,220,2012-09-03 17:15:00
12:35 PM,80.6,69.8,70,29.93,10.0,WSW,11.5,-,N/A,,Clear,240,2012-09-03 17:35:00
12:55 PM,80.6,69.8,70,29.93,10.0,WSW,9.2,-,N/A,,Clear,250,2012-09-03 17:55:00
1:15 PM,80.6,69.8,70,29.94,10.0,WSW,9.2,-,N/A,,Clear,250,2012-09-03 18:15:00
1:35 PM,78.8,69.8,74,29.93,10.0,West,8.1,-,N/A,,Light Drizzle,280,2012-09-03 18:35:00
1:55 PM,78.8,69.8,74,29.94,10.0,WNW,6.9,-,N/A,,Partly Cloudy,300,2012-09-03 18:55:00
2:15 PM,78.8,69.8,74,29.91,10.0,South,4.6,-,N/A,,Clear,180,2012-09-03 19:15:00
2:35 PM,78.8,69.8,74,29.93,10.0,SSW,6.9,-,N/A,,Clear,210,2012-09-03 19:35:00
2:55 PM,78.8,69.8,74,29.94,10.0,WSW,8.1,-,N/A,,Clear,240,2012-09-03 19:55:00
3:15 PM,78.8,69.8,74,29.94,10.0,SW,8.1,-,N/A,,Clear,220,2012-09-03 20:15:00
3:35 PM,78.8,69.8,74,29.89,10.0,SSE,12.7,-,N/A,,Clear,160,2012-09-03 20:35:00
3:55 PM,78.8,69.8,74,29.89,10.0,South,6.9,13.8,N/A,,Clear,170,2012-09-03 20:55:00
4:15 PM,78.8,69.8,74,29.91,10.0,SW,10.4,-,N/A,,Clear,230,2012-09-03 21:15:00
4:35 PM,78.8,69.8,74,29.90,10.0,SSW,6.9,-,N/A,,Clear,210,2012-09-03 21:35:00
4:55 PM,78.8,69.8,74,29.90,10.0,South,9.2,-,N/A,,Clear,180,2012-09-03 21:55:00
5:15 PM,80.6,68.0,65,29.89,10.0,South,9.2,-,N/A,,Clear,190,2012-09-03 22:15:00
5:35 PM,82.4,66.2,58,29.88,10.0,SSW,6.9,-,N/A,,Clear,200,2012-09-03 22:35:00
5:55 PM,82.4,64.4,54,29.88,10.0,SSW,6.9,-,N/A,,Clear,200,2012-09-03 22:55:00
6:15 PM,80.6,64.4,58,29.87,10.0,SSW,5.8,-,N/A,,Clear,200,2012-09-03 23:15:00
6:35 PM,80.6,66.2,61,29.88,10.0,South,6.9,-,N/A,,Clear,170,2012-09-03 23:35:00
6:55 PM,78.8,66.2,65,29.87,10.0,South,6.9,-,N/A,,Clear,170,2012-09-03 23:55:00
7:15 PM,78.8,66.2,65,29.88,10.0,South,6.9,-,N/A,,Clear,190,2012-09-04 00:15:00
7:35 PM,77.0,62.6,61,29.88,10.0,South,6.9,-,N/A,,Clear,180,2012-09-04 00:35:00
7:55 PM,73.4,62.6,69,29.89,10.0,South,6.9,-,N/A,,Clear,190,2012-09-04 00:55:00
8:15 PM,71.6,62.6,73,29.89,10.0,South,5.8,-,N/A,,Clear,180,2012-09-04 01:15:00
8:35 PM,69.8,62.6,78,29.90,10.0,South,8.1,-,N/A,,Clear,180,2012-09-04 01:35:00
9:15 PM,69.8,62.6,78,29.90,10.0,SE,5.8,-,N/A,,Clear,140,2012-09-04 02:15:00
9:35 PM,69.8,64.4,83,29.91,10.0,SE,4.6,-,N/A,,Clear,140,2012-09-04 02:35:00
9:55 PM,68.0,64.4,88,29.91,10.0,SSE,5.8,-,N/A,,Clear,150,2012-09-04 02:55:00
10:15 PM,68.0,66.2,94,29.90,10.0,SE,4.6,-,N/A,,Clear,130,2012-09-04 03:15:00
10:35 PM,68.0,64.4,88,29.90,10.0,ESE,3.5,-,N/A,,Clear,120,2012-09-04 03:35:00
10:55 PM,68.0,66.2,94,29.91,10.0,Calm,Calm,-,N/A,,Clear,0,2012-09-04 03:55:00
11:15 PM,66.2,64.4,94,29.91,9.0,Calm,Calm,-,N/A,,Clear,0,2012-09-04 04:15:00
11:35 PM,64.4,62.6,94,29.91,8.0,Calm,Calm,-,N/A,,Clear,0,2012-09-04 04:35:00
11:55 PM,64.4,62.6,94,29.91,7.0,Calm,Calm,-,N/A,,Clear,0,2012-09-04 04:55:00